Regional Weather Roundup
Issued by NWS

Home | Current Version | Previous Version | Graphics & Text | Print | Product List | Glossary On
Versions: 1 2 3 4 5 6 7 8 9 10 11 12 13 14 15 16 17 18 19 20 21 22 23 24 25 26 27
000
ASUS45 KCYS 260810
RWRWY

WYOMING REGIONAL WEATHER ROUNDUP
NATIONAL WEATHER SERVICE CHEYENNE WY
200 AM MDT FRI MAY 26 2017

NOTE:  "FAIR" INDICATES FEW OR NO CLOUDS BELOW 12,000 FEET
WITH NO SIGNIFICANT WEATHER AND/OR OBSTRUCTIONS TO VISIBILITY.

WYZ001-260900-
YELLOWSTONE NATIONAL PARK

CITY           SKY/WX    TMP DP  RH WIND       PRES   REMARKS
LK YELLOWSTONE   N/A     33  28  81 CALM      29.94S
W YELLOWSTONE  NOT AVBL

$$
WYZ002>013-054>058-071-098>099-260900-
NORTHERN WYOMING

CITY           SKY/WX    TMP DP  RH WIND       PRES   REMARKS
JACKSON        FAIR      37  28  70 NE7       29.87S WCI  32
CODY           MOCLDY    45  32  60 CALM      29.94S
GREYBULL       MOCLDY    52  28  39 NW13      29.88S
WORLAND        CLOUDY    51  33  50 W5        29.90R
SHERIDAN       FAIR      41  34  76 S3        29.90S
BUFFALO        MOCLDY    46  34  62 CALM      29.93R
GILLETTE       FAIR      35  33  92 W8        29.90R WCI  29
HULETT         FAIR      41  34  75 SW7       29.89R
NEWCASTLE      FAIR      43  32  65 NW8       29.91R

$$
WYZ014>020-022>026-101>103-260900-
CENTRAL WYOMING

CITY           SKY/WX    TMP DP  RH WIND       PRES   REMARKS
BIG PINEY      FAIR      32  28  85 NW7       29.91S WCI  26
PINEDALE       FAIR      32  28  86 E3        29.92S
DUBOIS         PTSUNNY   36  30  80 E15G23    29.92  WCI  26
LANDER         CLOUDY    46  37  71 NW6       29.94R
RIVERTON       CLOUDY    46  32  58 NE5       29.94S
CASPER         CLOUDY    46  37  71 E7        29.94S
DOUGLAS        CLOUDY    45  39  79 W3        29.95R

$$
WYZ021-027>030-104>119-260900-
SOUTHERN WYOMING

CITY           SKY/WX    TMP DP  RH WIND       PRES   REMARKS
EVANSTON       CLOUDY    44  26  49 E9        29.87F
KEMMERER         N/A     39  28  65 N3        29.91S
ROCK SPRINGS   FAIR      40  30  67 E9        29.94R WCI  34
DIXON            N/A     40  35  84 NE6       29.95
RAWLINS        FAIR      41  32  70 NE9G18    29.94R
SARATOGA       FAIR      41  36  81 SE13      29.94R
LARAMIE        FAIR      36  32  85 SE10      29.95S WCI  28
CHEYENNE       FAIR      41  36  82 NW5       29.96R
TORRINGTON     FAIR      45  37  73 NW9       29.91R

$$




USA.gov is the U.S. government's official web portal to all federal, state and local government web resources and services.